Location: Vancouver
(49.2500°N, 123.1330°W)
Time: 13:27:58
(UTC-07:00)

YAOGAN 6 - Visible Passes

Search period start: 20 April 2018 00:00
Search period end: 30 April 2018 00:00
Orbit: 469 x 506 km, 97.1° (Epoch: 20 April)

Date Brightness Start Highest point End Pass type
(mag) Time Alt. Az. Time Alt. Az. Time Alt. Az.
20 Apr 2.6 20:49:51 10° SSE 20:53:28 86° WSW 20:57:09 10° NNW visible
21 Apr 5.5 22:01:49 10° WSW 22:03:50 14° W 22:05:53 10° NW visible
22 Apr 4.8 21:37:05 10° SSW 21:40:07 25° W 21:43:12 10° NW visible
23 Apr 3.7 21:13:00 10° S 21:16:29 45° W 21:20:03 10° NNW visible
24 Apr 2.7 20:49:18 10° SSE 20:52:56 86° WSW 20:56:39 10° NNW visible
25 Apr 5.5 22:01:15 10° SW 22:03:19 14° W 22:05:23 10° NW visible
26 Apr 4.8 21:36:32 10° SSW 21:39:35 25° W 21:42:42 10° NW visible
27 Apr 3.7 21:12:26 10° S 21:15:57 45° W 21:19:32 10° NNW visible
29 Apr 5.5 22:00:40 10° SW 22:02:46 15° W 22:04:53 10° NW visible
